NOAA 16 DEB, 41433

Orbit data source: Space-Track

NOAA 16 DEB, 41433 is space debris in SSO originally from a launch on Thu, 21 Sep 2000 UTC launched from the Air Force Western Test Range (AFWTR). Debris objects in space refer to the collection of defunct objects orbiting the Earth. Examples of debris include non-operational satellites, rocket bodies, and fragments generated from explosions, collisions, or faulty payload assembly.

Loading next visibility...
Identifier
41433, 2000-055LN
Orbit
SSO
Country
Flag of USUS
Related business
Manufacturer
Unknown
Mission
Spacecraft
Bus & Motor
Unknown
Mass
Unknown
Launch date (UTC)
2000-09-21 (25 years ago)
Launch vehicle
Unknown
Launch site
Air Force Western Test Range (AFWTR)
Object type
Payload
Rocket body
Debris
Shape & HBR
Unknown shape, 0.1 m
Radar Cross Section
Small (<0.1 m²)

Expand to show TLE details & history
Last TLE update: 1 week ago

TLE from 1 week ago
0 NOAA 16 DEB
1 41433U 00055LN  25287.16296353  .00770476  00000-0  19717-1 0  9991
2 41433  98.9763 180.1019 0015576  86.3335 273.9685 15.36657755507834
Epoch: 2025-10-14T03:54Z
TLE epoch observation values (Epoch: 2025-10-14T03:54:40.048Z)
Latitude
-0.00007°
Longitude
98.4797°
Altitude
458.344 km
Speed
7.638 km/s
True Right ascension
12h 00m 24s
True Declination
0° 00' 00"
Sunlit
Object was in daylight at epoch
Visualization orbit readout
Latitude
Unknown
Longitude
Unknown
Altitude
Unknown
Speed
Unknown
Apparent Right ascension
Unknown
Apparent Declination
Unknown
Sunlit
N/A
Visualization observer readout
Local Sidereal Time
19:27:29
Azimuth
Unknown
Elevation
Unknown
Doppler factor
Unknown
Orbital elements
Apogee altitude
463.659 km
Perigee altitude
442.379 km
Semi-major axis
6,831.156 km
Eccentricity
0.00156
Inclination
98.9763°
RAAN
180.1019°
Arg. of periapsis
86.3335°
True anomaly
273.79042°
Mean anomaly
273.9685°
Eccentric anomaly
273.87946°
Mean motion
3.84416 °/min
Orbital period
93.65 mins
BSTAR
0.019717
Loading maneuver chart data...
Computing Atmospheric mass density...
Loading historical data...
Loading historical data...
Loading historical data...
Loading historical data...
Loading historical data...
Loading historical data...
Loading historical data...

Documentation

Showing up to 5 results
|